Weather History for Clinton, BC

Change the Weather History Date:

Wednesday, September 18, 2013

  Actual Average Record
Temperature  
Mean Temperature 48 °F -  
Max Temperature 62 °F 59 °F 78 °F (2008)
Min Temperature 34 °F 35 °F 28 °F (1996)
Degree Days  
Heating Degree Days 17    
Moisture  
Dew Point 38 °F    
Average Humidity 70    
Maximum Humidity 93    
Minimum Humidity 31    
Precipitation  
Precipitation 0.00 in - - ()
Sea Level Pressure  
Sea Level Pressure 29.98 in    
Wind  
Wind Speed 2 mph ()    
Max Wind Speed 8 mph    
Max Gust Speed -    
Visibility 9.0 miles    
Events Rain    
Averages and records for this station are not official NWS values.
T = Trace of Precipitation, MM = Missing Value Source: Averaged Metar Reports

Daily Weather History Graph

Daily Weather History Graph

Search for Another Location

Airport:

Trip Planner

Search our weather history database for the weather conditions in past years. The results will help you decide how hot, cold, wet, or windy it might be!

Date:

Astronomy

Sep. 18, 2013 Rise Set
Actual Time 6:46 AM PDT 7:12 PM PDT
Civil Twilight 6:13 AM PDT 7:45 PM PDT
Nautical Twilight 5:33 AM PDT 8:24 PM PDT
Astronomical Twilight 4:52 AM PDT 9:06 PM PDT
Moon 6:35 PM PDT (9/18) 5:53 AM PDT (9/18)
Length of Visible Light 13h 32m
Length of Day
12h 26m
Waxing Gibbous, 99% of the Moon is Illuminated
Sep 18
Waxing Gibbous
Sep 19
Full
Sep 26
Last Quarter
Oct 4
New
Oct 11
First Quarter

Hourly Weather History & Observations

Time (PDT) Temp. Windchill Dew Point Humidity Pressure Visibility Wind Dir Wind Speed Gust Speed Precip Events Conditions
12:00 AM 39.2 °F 35.0 °F 35.6 °F 87% 29.90 in 9.0 mi WNW 5.8 mph - N/A   Clear
1:00 AM 39.2 °F 37.0 °F 35.6 °F 87% 29.90 in 9.0 mi WSW 3.5 mph - N/A   Clear
2:00 AM 38 °F - 36 °F 88% 29.91 in 9 mi Calm Calm - -  
2:00 AM 39.2 °F - 35.6 °F 87% 29.91 in 9.0 mi WSW 2.3 mph - N/A   Clear
3:00 AM 37.4 °F - 35.6 °F 93% 29.91 in 9.0 mi Calm Calm - N/A   Clear
4:00 AM 35.6 °F - 33.8 °F 93% 29.91 in 9.0 mi Calm Calm - N/A   Clear
5:00 AM 36 °F - 34 °F 90% 29.93 in 9 mi Calm Calm - -  
5:00 AM 35.6 °F - 33.8 °F 93% 29.93 in 9.0 mi Calm Calm - N/A   Clear
6:00 AM 35.6 °F - 33.8 °F 93% 29.95 in 9.0 mi Calm Calm - N/A   Clear
7:00 AM 35.6 °F - 33.8 °F 93% 29.98 in 9.0 mi Calm Calm - N/A   Clear
8:00 AM 40 °F - 38 °F 88% 29.99 in 9 mi Calm Calm - -  
8:00 AM 39.2 °F - 37.4 °F 93% 29.99 in 9.0 mi Calm Calm - N/A   Clear
9:00 AM 46.4 °F 45.2 °F 41.0 °F 81% 29.98 in 9.0 mi ESE 3.5 mph - N/A   Clear
10:00 AM 50.0 °F - 41.0 °F 71% 30.00 in 9.0 mi ESE 3.5 mph - N/A   Clear
11:00 AM 54 °F - 39 °F 46% 30.00 in 9 mi SSE 3.5 mph - -  
11:00 AM 53.6 °F - 39.2 °F 58% 30.00 in 9.0 mi SSE 3.5 mph - N/A   Partly Cloudy
12:00 PM 55.4 °F - 39.2 °F 54% 30.00 in 9.0 mi WNW 2.3 mph - N/A   Mostly Cloudy
12:01 PM 55.4 °F - 39.2 °F 54% 29.96 in 9.0 mi WNW 2.3 mph - N/A Rain Light Rain
12:23 PM 53.6 °F - 44.6 °F 72% 29.96 in 9.0 mi South 5.8 mph - N/A Rain Light Rain
12:41 PM 51.8 °F - 42.8 °F 71% 29.96 in 9.0 mi SW 3.5 mph - N/A   Overcast
12:46 PM 53.6 °F - 42.8 °F 67% 29.96 in 9.0 mi SW 3.5 mph - N/A   Mostly Cloudy
1:00 PM 55.4 °F - 42.8 °F 63% 30.00 in 9.0 mi Calm Calm - N/A   Mostly Cloudy
2:00 PM 60 °F - 37 °F 31% 29.99 in 9 mi SE 2.3 mph - -  
2:00 PM 59.0 °F - 37.4 °F 45% 29.99 in 9.0 mi Calm Calm - N/A   Mostly Cloudy
2:15 PM 59.0 °F - 41.0 °F 51% 29.96 in 9.0 mi NNE 8.1 mph - N/A Rain Light Rain
2:27 PM 59.0 °F - 42.8 °F 55% 29.96 in 9.0 mi NE 6.9 mph - N/A   Overcast
2:32 PM 59.0 °F - 41.0 °F 51% 29.96 in 9.0 mi East 5.8 mph - N/A Rain Light Rain
2:35 PM 57.2 °F - 37.4 °F 48% 29.96 in 9.0 mi ENE 5.8 mph - N/A   Overcast
3:00 PM 55.4 °F - 39.2 °F 54% 30.00 in 9.0 mi NE 3.5 mph - N/A   Mostly Cloudy
4:00 PM 57.2 °F - 37.4 °F 48% 29.99 in 9.0 mi East 3.5 mph - N/A   Mostly Cloudy
5:00 PM 58 °F - 39 °F 37% 30.00 in 9 mi SE 2.3 mph - -  
5:00 PM 59.0 °F - 39.2 °F 48% 30.00 in 9.0 mi ESE 3.5 mph - N/A   Scattered Clouds
6:00 PM 55.4 °F - 41.0 °F 58% 30.01 in 9.0 mi Calm Calm - N/A   Partly Cloudy
7:00 PM 48.2 °F - 39.2 °F 71% 30.03 in 9.0 mi West 2.3 mph - N/A   Clear
8:00 PM 44.6 °F 42.2 °F 39.2 °F 81% 30.04 in 9.0 mi West 4.6 mph - N/A   Clear
9:00 PM 44.6 °F 42.2 °F 37.4 °F 76% 30.04 in 9.0 mi SW 4.6 mph - N/A   Clear
10:00 PM 44.6 °F 41.4 °F 37.4 °F 76% 30.05 in 9.0 mi South 5.8 mph - N/A   Clear
11:00 PM 40 °F - 35 °F 77% 30.05 in 9 mi SSW 4.6 mph - -  
11:00 PM 39.2 °F 35.0 °F 35.6 °F 87% 30.05 in 9.0 mi SSW 5.8 mph - N/A   Clear